AirNav   Everest Fuels
 
 1009 users online  

09A Butler-Choctaw County Airport
Butler, Alabama, USA

GOING TO BUTLER?


FAA INFORMATION EFFECTIVE 18 JUNE 2020

Location

FAA Identifier: 09A
Lat/Long: 32-07-09.5000N 088-07-38.9000W
32-07.158333N 088-07.648333W
32.1193056,-88.1274722
(estimated)
Elevation: 133.7 ft. / 40.8 m (surveyed)
Variation: 03W (2020)
From city: 5 miles NE of BUTLER, AL
Time zone: UTC -5 (UTC -6 during Standard Time)
Zip code: 36904

Airport Operations

Airport use: Open to the public
Activation date: 04/1969
Control tower: no
ARTCC: MEMPHIS CENTER
FSS: ANNISTON FLIGHT SERVICE STATION
NOTAMs facility: ANB (NOTAM-D service available)
Attendance: UNATNDD
Wind indicator: lighted
Segmented circle: yes
Lights: ACTVT MIRL RY 12/30 & PAPI RY 30 - CTAF.
Beacon: white-green (lighted land airport)
Operates sunset to sunrise.

Airport Communications

CTAF/UNICOM: 122.8
MERIDIAN APPROACH: 119.2
MERIDIAN DEPARTURE: 119.2
  • APCH/DEP SVC PRVDD BY ATLANTA ARTCC ON FREQS 120.55/270.25 (MONTGOMERY RCAG) WHEN MERIDIAN APCH CTL CLSD.

Nearby radio navigation aids

VOR radial/distance  VOR name  Freq  Var
MEIr109/37.7MERIDIAN VORTAC117.0005E

Airport Services

Parking: tiedowns
Airframe service: NONE
Powerplant service: NONE
Bottled oxygen: NONE
Bulk oxygen: NONE

Runway Information

Runway 12/30

Dimensions: 4082 x 80 ft. / 1244 x 24 m
Surface: asphalt, in poor condition
RWY POOR COND DUE TO CRACKING WITH VEGETATION AND RAVELING.
Weight bearing capacity: 
Single wheel: 15.0
Runway edge lights: medium intensity
Runway edge markings: MARKINGS IN POOR COND.
RUNWAY 12  RUNWAY 30
Latitude: 32-07.304368N32-07.012883N
Longitude: 088-08.004210W088-07.291267W
Elevation: 116.3 ft.133.7 ft.
Traffic pattern: leftleft
Runway heading: 119 magnetic, 116 true299 magnetic, 296 true
Displaced threshold: 169 ft.444 ft.
Markings: nonprecision, in poor conditionnonprecision, in poor condition
Visual slope indicator: 2-light PAPI on left (3.00 degrees glide path)
PAPI UNUSBL BYD 8 DEGS LEFT OF CNTRLN.
2-light PAPI on left (3.00 degrees glide path)
PAPI RY 30 OTS INDEFLY.
Touchdown point: yes, no lightsyes, no lights
Obstructions: 89 ft. trees, 1615 ft. from runway, 335 ft. right of centerline, 15:1 slope to clear
TREE IS 72 FEET FROM PAVEMENT END AND 241 FEET FROM DISPLACED THRESHOLD. 20:1 SLOPE FROM DISPLACED THRESHOLD.
42 ft. trees, 880 ft. from runway, 61 ft. left of centerline, 16:1 slope to clear

Airport Ownership and Management from official FAA records

Ownership: Publicly-owned
Owner: CHOCTAW COUNTY
117 SOUTH MULBERRY/SUITE 9
BUTLER, AL 36904
Phone 205-459-2417
Manager: TYLER DAVIDSON
117 SOUTH MULBERRY, SUITE 12
BUTLER, AL 36904
Phone (205) 459-2153

Airport Operational Statistics

Aircraft operations: avg 37/week *
81% transient general aviation
19% local general aviation
* for 12-month period ending 11 October 2019

Additional Remarks

FOR CD CTC MERIDIAN APCH 601-679-3691, WHEN MERIDIAN APCH CLSD CTC ATLANTA ARTCC AT 770-210-7692.

Instrument Procedures

NOTE: All procedures below are presented as PDF files. If you need a reader for these files, you should download the free Adobe Reader.

NOT FOR NAVIGATION. Please procure official charts for flight.
FAA instrument procedures published for use from 18 June 2020 at 0901Z to 16 July 2020 at 0900Z.

 
IAPs - Instrument Approach Procedures
RNAV (GPS) RWY 12   download (226KB)
RNAV (GPS) RWY 30   download (245KB)
NOTE: Special Take-Off Minimums/Departure Procedures apply   download (291KB)

Other nearby airports with instrument procedures:

KDYA - Demopolis Regional Airport (22 nm NE)
KNMM - Meridian Naval Air Station (Mc Cain Field) (34 nm NW)
KMEI - Key Field Airport (34 nm W)
5R1 - Roy Wilcox Airport (40 nm S)
4R3 - Jackson Municipal Airport (41 nm S)
 
Loc | Ops | Rwys | IFR | FBO | Links
Com | Nav | Svcs | Stats | Notes

Continental Services
AirBoss

 
Area around 09A (Butler-Choctaw County Airport)
 
Road maps at: MapQuest Bing Google
 
Aerial photo
WARNING: Photo may not be current or correct
Aerial photo of 09A (Butler-Choctaw County Airport)
Photo taken 07-Feb-2008

Do you have a better or more recent aerial photo of Butler-Choctaw County Airport that you would like to share? If so, please send us your photo.

 
Sectional chart

 
Airport distance calculator
Flying to Butler-Choctaw County Airport? Find the distance to fly.

From to 09A

Sunrise and sunset
Times for 05-Jul-2020
 Local
(UTC-5)
 Zulu
(UTC)
Morning civil twilight05:2510:25
Sunrise05:5310:53
Sunset20:0101:01
Evening civil twilight20:3001:30

Current date and time
Zulu (UTC)  05-Jul-2020 19:56:55
Local (UTC-5)  05-Jul-2020 14:56:55
 
METAR
KDYA 
22nm NE 
051935Z AUTO 11010KT 10SM SCT044 SCT060 SCT070 33/21 A2986 RMK AO2 T03310209
KNMM 
33nm NW 
051856Z 13005KT 10SM BKN032 BKN250 32/23 A2988 RMK AO2 SLP122 OCNL LTG DSNT SW AND NW CB DSNT SW AND NW T2 SET T03170233 $
KMEI 
34nm W 
051858Z 22007KT 10SM FEW037 31/24 A2987 RMK AO2 SLP112 T03110244
KA08 
44nm NE 
051835Z AUTO 11005KT 10SM SCT042 SCT050 BKN090 32/23 A2989 RMK AO2 T03210229
TAF
KMEI 
34nm W 
051739Z 0518/0618 16005KT P6SM SCT035 FM051900 11011KT 5SM TSRA BR BKN035CB FM052100 13005KT P6SM VCTS BKN040CB FM060100 12003KT P6SM OVC250 FM061200 11003KT P6SM OVC007 FM061500 12004KT P6SM OVC015 FM061700 12005KT P6SM BKN035
NOTAMs
Click for the latest NOTAMs
NOTAMs are issued by the DoD/FAA and will open in a separate window not controlled by AirNav.

 

 
 

Would you like to see your business listed on this page?

 If your business provides an interesting product or service to pilots, flight crews, aircraft, or users of the Butler-Choctaw County Airport, you should consider listing it here.  To start the listing process, click on the button below
 
Add a business
 

Other Pages about Butler-Choctaw County Airport

Update a link
 
Copyright © AirNav, LLC. All rights reserved. Privacy Policy  Contact